Weather in Ternate

Indonesia     0°49′59″N   127°20′39″E
temp.,
°C
wind,
m/s
gust,
m/s
humid.,
%
clouds,
%
prec.,
mm/h
press.,
hPa
HPBL,
m
27 february, sat
sat2700:00+27nne338048 0.3 1008359
03:00+27nne338156 0.3 1007310
06:00+26nne338145 0.1 1007334
09:00+27nne337948 0.1 1009410
12:00+29nnw347096 0.0 1008600
15:00+29nnw667565 0.0 1006619
18:00+28nne667936 0.0 1006635
21:00+27nne568122 0.0 1009446
28 february, sun
sun2800:00+27nne44814 0.0 1009439
03:00+27nne338134 0.0 1008418
06:00+26nne33816 0.0 1008401
09:00+27nne44773 0.0 1010546
12:00+29n33691 0.0 1009585
15:00+29nw66732 0.0 1007703
18:00+28n567810 0.0 1007598
21:00+27nne448149 0.0 1009482
1 march, mon
mon100:00+27nne338234 0.0 1010372
03:00+27ne118032 0.1 1008324
06:00+26ne228139 0.0 1009234
09:00+27nne227557 0.0 1011337
12:00+29wnw226839 0.0 1010537
15:00+29nw347462 0.7 1008774
18:00+28n5678100 5.9 1008448
21:00+27n4578100 7.9 1010467
2 march, tue
tue200:00+27n458044 0.8 1010514
03:00+27nne448155 1.4 1008414
06:00+27nne5583100 0.3 1009501
09:00+27nne5681100 0.3 1011664
12:00+29n557297 0.0 1010745
15:00+28n567897 1.0 1008705
18:00+27nne5678100 1.3 1008558
21:00+27nne3477100 3.7 1010284
3 march, wed
wed300:00+27nne4481100 0.3 1011419
03:00+26nne4482100 0.3 1009424
06:00+26nne348099 0.0 1010424
09:00+26ene227573 0.0 1011398
12:00+29w215930 0.0 1011504
15:00+28nw336338 0.0 1008652
18:00+27nnw447765 0.2 1009696
21:00+27nne347754 0.5 1011466